Location: Los Gatos B&B
(42.6926°N, 77.0646°W)
Time: 15:54:24
(UTC-04:00)

Cosmos 2263 Rocket - Visible Passes

Search period start: 25 July 2014 00:00
Search period end: 04 August 2014 00:00
Orbit: 824 x 849 km, 71.0° (Epoch: 25 July)

Date Brightness Start Highest point End Pass type
(mag) Time Alt. Az. Time Alt. Az. Time Alt. Az.
25 Jul 3.3 02:27:45 30° SE 02:28:49 32° ESE 02:33:47 10° NE visible
25 Jul 3.0 04:09:28 22° WSW 04:12:38 39° WNW 04:17:56 10° N visible
26 Jul 3.4 02:11:38 29° ESE 02:12:15 30° ESE 02:17:05 10° NE visible
26 Jul 2.9 03:53:20 26° WSW 03:55:59 42° WNW 04:01:22 10° NNE visible
27 Jul 3.5 01:55:29 27° ESE 01:55:40 27° ESE 02:00:22 10° NE visible
27 Jul 2.8 03:37:11 31° WSW 03:39:21 45° WNW 03:44:47 10° NNE visible
28 Jul 3.6 01:39:18 25° E 01:39:18 25° E 01:43:38 10° NE visible
28 Jul 2.7 03:21:00 37° WSW 03:22:42 49° WNW 03:28:12 10° NNE visible
29 Jul 3.8 01:23:05 23° E 01:23:05 23° E 01:26:54 10° NE visible
29 Jul 2.6 03:04:47 44° WSW 03:06:04 52° WNW 03:11:37 10° NNE visible
29 Jul 4.6 04:50:39 10° NW 04:51:24 10° NW 04:52:09 10° NNW visible
30 Jul 3.9 01:06:51 21° E 01:06:51 21° E 01:10:08 10° NE visible
30 Jul 2.4 02:48:33 51° W 02:49:27 57° WNW 02:55:02 10° NNE visible
30 Jul 4.5 04:33:10 10° NW 04:34:41 11° NW 04:36:13 10° NNW visible
31 Jul 4.0 00:50:35 18° E 00:50:35 18° E 00:53:22 10° NE visible
31 Jul 2.3 02:32:17 58° W 02:32:49 61° WNW 02:38:27 10° NNE visible
31 Jul 4.5 04:15:58 10° WNW 04:17:59 12° NW 04:20:00 10° NNW visible
01 Aug 4.2 00:34:18 16° E 00:34:18 16° E 00:36:33 10° ENE visible
01 Aug 2.3 02:15:59 66° WNW 02:16:12 66° WNW 02:21:51 10° NNE visible
01 Aug 4.4 03:58:52 10° WNW 04:01:16 13° NW 04:03:41 10° NNW visible
02 Aug 4.3 00:17:59 15° ENE 00:17:59 15° ENE 00:19:43 10° ENE visible
02 Aug 2.2 01:59:40 71° NW 01:59:40 71° NW 02:05:15 10° NNE visible
02 Aug 4.4 03:41:51 10° WNW 03:44:34 14° NW 03:47:18 10° NNW visible
03 Aug 4.3 00:01:38 13° ENE 00:01:38 13° ENE 00:02:51 10° ENE visible
03 Aug 2.3 01:43:19 74° NNW 01:43:19 74° NNW 01:48:39 10° NNE visible
03 Aug 4.4 03:25:00 10° WNW 03:27:52 14° NW 03:30:53 10° NNW visible
03 Aug 4.4 23:45:15 12° ENE 23:45:15 12° ENE 23:45:55 10° ENE visible
